Temp
1 1 1 1 1 1 0 -0 -1 -1 -1 -2 -3 -4 -6 -6 -6 -7 -7 -7 -7 -7 -7 -7 -7 -7 -7 -6 -5 -5 -4 -2 -2 -2 -1 -0 0 -0 1 2 2 2 1 2 2 2 2
1 0 0 0 1 0 0 -1 -1 -2 -2 -2 -2 -3 -5 -6 -6 -7 -7 -7 -7 -7 -7 -7 -7 -7 -7 -6 -6 -4 -3 -3 -2 -1 -1 -1 0 0 -0 0 1 2 1 1 2 2 2
0 0 -0 -0 0 0 0 -1 -1 -2 -2 -2 -2 -3 -5 -6 -6 -6 -7 -7 -7 -7 -7 -7 -7 -8 -7 -6 -6 -5 -4 -3 -2 -2 -2 -1 -0 -1 -1 0 0 0 2 1 2 2 2
0 -0 -1 -0 -0 0 -0 -1 -1 -2 -2 -2 -3 -2 -4 -5 -6 -7 -7 -7 -7 -7 -7 -7 -7 -8 -7 -7 -6 -5 -4 -4 -2 -2 -2 -1 -1 -1 -1 -0 0 0 1 1 1 2 2
0 -1 -1 -0 -1 -0 -0 -1 -1 -2 -3 -3 -3 -3 -3 -5 -6 -7 -7 -7 -7 -7 -7 -7 -7 -7 -7 -6 -5 -6 -4 -3 -2 -2 -2 -2 -2 -1 -1 -1 0 -0 0 1 1 2 3
-0 -1 -2 -1 -1 -1 -0 -1 -1 -2 -2 -3 -3 -3 -3 -4 -6 -7 -7 -7 -7 -7 -7 -7 -8 -7 -7 -6 -5 -4 -4 -3 -3 -2 -3 -2 -2 -1 -1 -1 0 1 1 1 1 1 2
-0 -1 -2 -1 -1 -1 -0 -1 -1 -1 -2 -2 -3 -3 -4 -3 -5 -6 -7 -7 -7 -7 -7 -8 -7 -8 -7 -6 -5 -4 -3 -3 -2 -2 -2 -2 -2 -1 -0 -0 0 1 1 1 1 1 2
-0 -2 -2 -1 -1 -1 -1 -1 -1 -1 -2 -2 -2 -3 -4 -4 -3 -5 -6 -6 -7 -7 -7 -7 -7 -6 -6 -5 -4 -4 -3 -3 -2 -3 -2 -2 -2 -1 -0 -0 0 1 1 1 1 1 2
-0 -1 -2 -1 -1 -1 -1 -1 -1 -1 -1 -2 -2 -2 -3 -3 -3 -3 -5 -6 -6 -6 -7 -7 -7 -6 -6 -6 -5 -4 -3 -3 -2 -2 -2 -2 -2 -1 -1 -1 0 0 1 1 1 1 1
-0 -1 -2 -2 -2 -1 -1 -1 -1 -1 -1 -1 -2 -2 -2 -2 -3 -2 -3 -4 -5 -5 -6 -5 -6 -5 -5 -5 -4 -4 -3 -3 -2 -3 -2 -2 -1 -1 -1 -1 0 -0 1 1 1 1 1
-1 -2 -2 -2 -1 -1 -1 -1 -1 -1 -1 -1 -1 -1 -2 -2 -2 -2 -2 -3 -4 -4 -6 -4 -5 -4 -4 -4 -4 -3 -3 -2 -3 -2 -2 -3 -2 -2 -1 -1 -0 -0 1 1 1 1 1
-1 -1 -2 -2 -1 -1 -1 -1 -1 -1 -1 -1 -1 -1 -1 -2 -2 -1 -2 -2 -3 -3 -5 -4 -4 -4 -3 -4 -4 -4 -3 -3 -3 -3 -3 -2 -2 -2 -2 -1 -1 -1 0 1 1 0 -2
-1 -1 -1 -2 -1 -1 -1 -1 -1 -0 -0 -0 -1 -1 -1 -1 -2 -1 -2 -1 -3 -4 -3 -4 -3 -3 -3 -3 -3 -2 -2 -3 -3 -3 -3 -3 -2 -2 -2 -1 -1 -2 0 -2 -3 -4 -4
-0 -1 -2 -1 -1 -1 -1 -1 -1 -1 0 -0 -0 -1 -1 -1 -0 -1 -2 -1 -3 -4 -4 -3 -3 -3 -3 -3 -3 -3 -4 -3 -3 -3 -3 -3 -3 -3 -2 -2 -2 -2 -1 -1 -3 -4 -3
0 -0 -1 -1 -1 -1 -0 -0 -0 -0 0 -0 -0 -0 -1 -1 -1 0 -0 -1 -3 -3 -3 -3 -3 -3 -2 -2 -2 -2 -3 -3 -3 -3 -1 -3 -3 -3 -2 -2 -2 -2 -1 -1 -0 0 -2
-0 -0 -1 -1 -1 -0 -0 0 0 -0 0 0 -0 -0 -1 -1 -1 -0 -0 -1 -3 -3 -3 -3 -3 -2 -2 -2 -1 -2 -2 -3 -3 -2 -2 -2 -2 -2 -2 -2 -2 -2 -2 -2 -1 -4 -2
-0 -1 -1 -1 -1 -0 -0 0 1 0 -0 -0 -0 -0 -1 -1 -1 -1 -1 -1 -3 -3 -2 -3 -3 -2 -2 -2 -1 -2 -2 -2 -2 -2 -2 -2 -2 -3 -3 -2 -2 -2 -2 -1 -1 -1 -4
-1 -1 -1 -1 -1 -1 -0 0 1 1 -0 0 -0 -1 -1 -2 -3 -2 -2 -2 -2 -2 -2 -2 -2 -2 -2 -2 -2 -2 -2 -2 -2 -2 -2 -2 -2 -4 -3 -3 -2 -2 -2 -2 -0 -1 -1
-1 -1 -1 -1 -1 -1 -1 -0 0 0 0 -1 -1 -1 -1 -2 -3 -3 -2 -2 -2 -2 -2 -2 -2 -2 -2 -2 -2 -2 -2 -2 -2 -2 -2 -1 -2 -4 -4 -4 -3 -2 -2 -1 -1 -1 -1
-2 -2 -2 -2 -1 -1 -1 -1 -0 -0 -1 -1 -1 -1 -2 -2 -3 -3 -3 -3 -3 -3 -2 -2 -2 -2 -2 -2 -2 -2 -2 -2 -2 -2 -2 -2 -2 -2 -2 -1 -1 -2 -1 -2 -2 -2 -1
-2 -2 -2 -2 -2 -2 -2 -1 -1 -1 -1 -2 -2 -1 -2 -3 -3 -3 -3 -3 -4 -3 -3 -3 -2 -2 -3 -3 -3 -2 -3 -2 -2 -2 -2 -2 -2 -2 -2 -2 -1 -1 -2 -2 -2 -2 -2
-2 -3 -2 -2 -2 -2 -2 -1 -1 -1 -1 -1 -2 -2 -2 -3 -3 -3 -3 -3 -3 -4 -4 -3 -3 -3 -3 -3 -3 -3 -3 -3 -2 -2 -2 -2 -2 -2 -2 -2 -2 -2 -2 -2 -2 -2 -2
-2 -3 -2 -2 -2 -2 -2 -2 -2 -1 -2 -3 -3 -3 -3 -3 -3 -4 -4 -4 -4 -3 -4 -4 -3 -3 -3 -3 -3 -3 -3 -3 -3 -3 -3 -3 -3 -3 -3 -3 -3 -3 -0 -0 -0 -0 0
-2 -3 -2 -3 -3 -2 -2 -2 -2 -2 -2 -3 -4 -5 -4 -4 -4 -4 -4 -4 -4 -3 -3 -3 -4 -3 -3 -3 -3 -3 -3 -3 -3 -4 -4 -4 -4 -4 -4 -4 -7 -1 -1 -0 -0 -0 -0
-3 -3 -3 -3 -3 -3 -2 -2 -3 -3 -3 -4 -5 -6 -5 -5 -5 -5 -4 -4 -4 -3 -4 -3 -4 -4 -4 -4 -4 -4 -4 -4 -4 -4 -4 -4 -4 -4 -4 -4 -2 -0 -0 -1 -1 0 0
-3 -3 -3 -3 -3 -3 -3 -3 -4 -4 -5 -6 -5 -6 -7 -6 -5 -5 -5 -4 -4 -4 -4 -4 -4 -4 -4 -4 -3 -3 -3 -3 -3 -4 -4 -4 -4 -4 -4 -4 -5 -2 -2 -1 -2 -1 -0
-3 -3 -4 -4 -3 -3 -3 -3 -4 -5 -5 -5 -6 -7 -7 -7 -7 -7 -6 -6 -5 -4 -4 -4 -4 -4 -4 -4 -4 -3 -3 -3 -3 -3 -4 -4 -4 -4 -4 -4 -3 -2 -2 -2 -2 -1 -0
-3 -4 -4 -4 -4 -4 -4 -4 -5 -5 -6 -6 -6 -7 -7 -7 -8 -7 -7 -6 -6 -5 -5 -5 -5 -5 -5 -4 -4 -4 -4 -3 -3 -3 -3 -3 -4 -4 -4 -4 -4 -2 -3 -2 -2 -2 -1
-4 -4 -4 -4 -4 -4 -4 -4 -5 -5 -6 -6 -7 -7 -8 -7 -8 -7 -7 -7 -6 -6 -6 -6 -5 -5 -5 -5 -5 -4 -4 -4 -3 -3 -3 -3 -3 -3 -3 -2 -2 -2 -2 -2 -2 -2 -2
Height
3115 3109 3104 3098 3092 3087 3082 3075 3070 3064 3057 3047 3037 3025 3016 3010 3007 3004 3005 3006 3007 3008 3008 3007 3006 3007 3008 3011 3018 3019 3025 3039 3050 3057 3062 3069 3076 3081 3087 3093 3101 3104 3110 3118 3123 3124 3130
3114 3108 3102 3096 3091 3086 3080 3074 3069 3062 3056 3045 3037 3025 3015 3009 3006 3004 3005 3006 3007 3008 3008 3007 3005 3006 3008 3011 3011 3018 3021 3032 3044 3052 3059 3066 3073 3081 3088 3091 3098 3100 3110 3112 3118 3120 3127
3112 3107 3101 3095 3089 3084 3079 3073 3068 3061 3054 3046 3037 3026 3017 3010 3006 3005 3006 3007 3008 3008 3008 3007 3005 3004 3006 3010 3012 3017 3021 3030 3041 3050 3056 3064 3073 3080 3086 3091 3098 3102 3108 3112 3114 3118 3123
3112 3105 3100 3094 3088 3084 3079 3072 3067 3060 3053 3046 3038 3028 3019 3014 3007 3007 3007 3007 3008 3008 3007 3006 3005 3004 3006 3009 3010 3016 3018 3028 3037 3046 3056 3066 3073 3078 3084 3089 3095 3101 3105 3109 3112 3116 3120
3110 3104 3099 3093 3087 3082 3077 3072 3066 3060 3052 3046 3040 3031 3022 3016 3011 3007 3008 3008 3008 3007 3006 3005 3005 3005 3006 3009 3014 3016 3021 3026 3028 3040 3052 3064 3069 3075 3081 3086 3093 3098 3100 3104 3110 3113 3118
3108 3102 3097 3091 3086 3081 3077 3072 3065 3059 3052 3047 3040 3035 3027 3021 3014 3009 3007 3008 3008 3007 3006 3006 3005 3008 3008 3009 3013 3017 3021 3025 3030 3041 3047 3060 3067 3071 3076 3079 3080 3084 3092 3099 3104 3109 3113
3106 3100 3095 3089 3084 3080 3075 3071 3065 3059 3052 3047 3041 3036 3031 3024 3021 3014 3009 3008 3010 3009 3006 3006 3006 3007 3008 3011 3014 3019 3020 3029 3034 3036 3046 3056 3060 3059 3067 3077 3084 3090 3096 3100 3104 3108 3112
3105 3098 3093 3087 3082 3079 3075 3071 3066 3060 3052 3047 3041 3037 3033 3027 3024 3021 3015 3012 3010 3011 3008 3007 3008 3009 3009 3012 3015 3020 3025 3032 3033 3030 3047 3053 3056 3064 3074 3079 3086 3090 3094 3098 3102 3104 3108
3104 3097 3092 3087 3082 3079 3075 3070 3066 3060 3053 3047 3042 3037 3033 3029 3025 3023 3021 3016 3015 3013 3011 3012 3013 3014 3014 3018 3020 3025 3027 3033 3035 3041 3047 3053 3059 3066 3073 3079 3084 3087 3092 3096 3100 3101 3103
3102 3096 3091 3086 3082 3077 3072 3069 3064 3060 3054 3047 3043 3038 3033 3030 3028 3024 3022 3019 3017 3017 3017 3021 3018 3019 3019 3021 3022 3023 3029 3035 3037 3041 3050 3057 3061 3067 3073 3078 3083 3085 3091 3095 3095 3099 3101
3100 3095 3090 3084 3080 3076 3073 3068 3064 3059 3054 3047 3044 3039 3035 3031 3029 3025 3024 3020 3017 3018 3025 3030 3024 3022 3023 3027 3028 3030 3034 3035 3040 3046 3054 3057 3062 3067 3072 3077 3083 3086 3090 3093 3094 3096 3098
3098 3093 3088 3083 3079 3075 3071 3066 3063 3058 3053 3048 3043 3041 3036 3033 3030 3027 3023 3023 3021 3022 3030 3033 3029 3025 3022 3028 3030 3034 3037 3040 3044 3049 3053 3058 3063 3068 3071 3076 3080 3084 3087 3091 3093 3094 3096
3095 3091 3086 3082 3078 3073 3069 3065 3061 3057 3052 3047 3043 3040 3036 3033 3031 3028 3026 3025 3025 3025 3033 3035 3031 3030 3031 3032 3033 3037 3040 3043 3046 3051 3056 3060 3063 3066 3070 3075 3078 3081 3085 3092 3096 3095 3090
3092 3088 3084 3080 3077 3072 3068 3063 3058 3053 3051 3047 3042 3039 3037 3033 3031 3029 3028 3028 3028 3033 3032 3033 3033 3035 3034 3036 3038 3039 3040 3043 3046 3049 3054 3058 3063 3064 3067 3070 3074 3078 3082 3083 3087 3088 3081
3089 3086 3081 3078 3075 3070 3065 3059 3054 3051 3047 3045 3043 3040 3037 3034 3032 3031 3032 3030 3035 3035 3036 3036 3036 3035 3036 3038 3040 3041 3042 3044 3045 3047 3051 3054 3059 3061 3065 3067 3068 3073 3076 3079 3079 3079 3079
3087 3083 3079 3076 3073 3067 3062 3057 3051 3049 3045 3043 3040 3039 3037 3035 3033 3032 3031 3032 3034 3036 3037 3037 3038 3038 3038 3039 3041 3042 3043 3045 3044 3047 3049 3052 3057 3060 3063 3067 3070 3070 3075 3079 3077 3080 3077
3084 3081 3077 3074 3070 3065 3059 3055 3050 3044 3042 3041 3039 3036 3036 3034 3033 3034 3031 3033 3036 3037 3038 3039 3039 3040 3041 3042 3043 3043 3045 3046 3046 3047 3049 3052 3055 3060 3062 3062 3063 3068 3068 3073 3074 3074 3072
3081 3079 3075 3072 3068 3062 3058 3052 3047 3043 3038 3037 3036 3035 3036 3035 3035 3032 3033 3033 3036 3037 3037 3038 3040 3040 3041 3043 3044 3044 3044 3045 3047 3048 3050 3052 3052 3056 3059 3059 3061 3062 3064 3068 3069 3070 3068
3079 3076 3073 3069 3065 3060 3055 3051 3045 3041 3036 3035 3034 3033 3032 3033 3034 3033 3033 3034 3035 3037 3038 3037 3038 3039 3040 3041 3044 3043 3044 3045 3046 3047 3049 3051 3053 3056 3059 3060 3057 3056 3059 3063 3064 3065 3063
3076 3073 3070 3066 3062 3057 3054 3048 3043 3039 3034 3033 3032 3030 3031 3030 3031 3032 3033 3033 3035 3036 3037 3038 3037 3038 3039 3040 3041 3042 3043 3045 3046 3047 3048 3049 3049 3049 3049 3049 3049 3051 3052 3056 3060 3061 3058
3073 3070 3066 3062 3058 3054 3050 3046 3042 3038 3033 3032 3031 3031 3030 3030 3031 3030 3031 3032 3033 3034 3035 3036 3037 3037 3038 3040 3040 3040 3041 3042 3044 3045 3046 3048 3047 3048 3047 3048 3048 3049 3049 3051 3051 3054 3055
3069 3066 3062 3058 3054 3050 3047 3043 3040 3035 3031 3028 3027 3027 3028 3029 3029 3029 3029 3030 3030 3031 3032 3033 3035 3036 3037 3038 3039 3038 3039 3040 3041 3042 3043 3044 3045 3045 3046 3046 3047 3046 3046 3046 3047 3048 3049
3065 3062 3057 3055 3051 3048 3045 3042 3038 3035 3029 3026 3024 3023 3025 3025 3026 3027 3026 3028 3028 3029 3031 3031 3032 3033 3035 3036 3037 3037 3038 3038 3039 3040 3041 3043 3043 3044 3044 3044 3044 3042 3037 3037 3039 3039 3041
3062 3057 3054 3053 3050 3046 3044 3040 3037 3032 3028 3025 3023 3022 3021 3022 3022 3023 3023 3024 3026 3027 3029 3030 3031 3032 3034 3034 3035 3035 3036 3037 3038 3038 3039 3040 3042 3043 3043 3043 3044 3033 3032 3033 3032 3033 3034
3058 3053 3051 3051 3048 3046 3042 3038 3033 3029 3026 3022 3021 3021 3021 3019 3019 3021 3021 3022 3023 3024 3026 3028 3030 3031 3031 3032 3033 3034 3035 3035 3035 3036 3038 3039 3041 3041 3041 3040 3033 3030 3030 3030 3029 3028 3027
3055 3051 3049 3048 3045 3043 3040 3036 3032 3028 3025 3022 3020 3018 3018 3018 3017 3017 3018 3019 3020 3020 3022 3024 3027 3029 3031 3031 3033 3032 3032 3033 3034 3033 3034 3036 3038 3040 3039 3039 3034 3028 3028 3028 3027 3025 3024
3051 3048 3047 3045 3042 3040 3037 3034 3031 3027 3024 3022 3019 3018 3017 3016 3014 3014 3014 3015 3016 3018 3019 3021 3024 3025 3028 3029 3030 3031 3031 3031 3031 3030 3031 3033 3035 3035 3037 3036 3028 3026 3026 3026 3028 3029 3022
3048 3046 3045 3042 3040 3038 3036 3032 3028 3025 3022 3020 3016 3012 3012 3012 3011 3008 3009 3009 3012 3014 3016 3018 3022 3022 3024 3026 3027 3027 3027 3028 3028 3027 3027 3029 3031 3031 3033 3033 3027 3023 3024 3025 3025 3023 3023
3046 3044 3043 3039 3037 3036 3033 3029 3026 3023 3019 3015 3013 3010 3007 3006 3007 3004 3005 3004 3006 3008 3012 3013 3016 3017 3019 3021 3023 3023 3024 3024 3023 3024 3024 3026 3024 3024 3025 3023 3023 3022 3021 3022 3022 3022 3023
Wind_Speed
36 37 35 32 31 29 30 32 32 35 40 46 49 47 30 24 19 13 5 4 1 3 9 7 7 9 17 14 22 13 18 37 38 29 33 28 33 33 34 35 32 36 23 26 23 26 27
37 38 36 33 31 28 31 31 32 34 40 43 47 43 29 24 19 6 2 3 2 3 7 7 6 5 10 11 21 21 29 44 35 33 36 32 31 30 30 27 30 32 24 19 19 27 19
36 40 38 33 31 27 30 31 32 33 38 40 41 40 30 22 14 8 2 2 1 4 7 8 7 4 7 6 16 24 24 41 36 29 36 33 28 28 20 17 23 5 29 23 16 20 25
37 40 38 34 30 27 29 30 31 32 35 36 36 39 34 25 12 6 1 2 4 7 10 10 6 5 2 7 18 24 28 37 41 36 31 27 30 23 20 18 20 15 15 27 30 19 20
37 39 37 35 30 26 27 29 31 32 32 31 31 33 39 31 15 7 5 4 4 7 10 5 4 1 8 13 13 18 24 32 30 37 38 32 35 31 20 24 22 20 16 29 25 37 31
35 38 37 33 31 25 25 27 29 31 31 29 26 26 38 40 22 11 7 6 9 8 2 4 4 6 10 13 17 22 25 26 29 27 37 36 35 35 27 32 33 38 30 29 29 33 35
33 35 36 31 30 25 23 25 27 29 31 29 25 24 24 33 36 24 14 8 7 4 3 6 7 1 13 14 19 30 20 36 28 39 40 38 40 45 39 32 15 20 25 17 24 20 23
33 32 33 31 29 27 23 23 26 29 31 30 26 21 20 25 31 28 23 19 15 12 9 9 8 2 11 15 23 30 25 23 21 26 38 37 38 37 30 26 18 15 12 25 15 20 25
32 33 31 30 30 29 25 24 24 26 28 30 27 21 18 20 26 25 18 18 17 17 15 14 12 10 10 15 27 21 17 22 16 27 28 27 26 33 29 28 24 23 16 17 20 14 26
30 30 30 29 30 27 27 24 25 24 26 27 27 20 17 17 22 21 18 11 8 12 9 15 8 7 13 22 7 19 20 17 23 23 24 17 13 26 26 27 24 20 17 11 18 19 15
27 27 29 29 29 27 25 26 26 25 24 24 25 22 17 17 19 18 15 13 7 7 5 8 7 9 13 11 10 24 26 19 29 29 17 11 15 27 25 26 21 16 13 15 16 16 10
24 25 28 25 28 27 25 24 25 26 24 22 24 23 19 16 17 15 9 9 8 6 5 8 7 3 9 14 15 18 12 20 24 23 11 13 23 22 26 26 23 14 19 16 14 10 4
21 22 25 25 27 26 25 28 26 25 24 20 21 20 20 16 15 12 8 5 8 8 5 3 9 7 16 16 19 15 13 16 15 16 16 13 16 20 25 23 26 20 20 4 0 2 6
22 21 24 26 27 24 24 26 23 23 24 19 16 19 19 17 17 14 10 15 12 5 6 9 12 15 13 15 13 9 11 15 14 19 21 14 6 17 20 27 26 25 25 9 6 4 5
20 20 22 25 26 29 27 25 26 23 21 18 13 15 14 14 12 10 7 8 10 11 9 7 6 6 6 7 9 4 12 16 17 21 11 10 10 22 21 19 19 30 26 10 3 5 2
19 18 22 24 27 29 29 25 26 22 19 17 12 10 9 10 11 10 5 6 11 12 9 4 3 2 6 11 8 4 3 5 10 21 20 10 6 21 21 26 23 21 26 11 8 2 4
19 19 21 24 28 29 29 26 24 22 16 14 11 9 8 9 7 8 5 11 15 8 6 4 6 4 8 6 9 5 3 7 9 13 13 12 5 10 18 21 27 23 24 13 11 6 3
18 19 21 23 27 30 29 27 24 22 16 13 10 6 6 5 4 4 7 16 10 7 5 6 10 10 9 9 6 4 9 7 12 10 11 9 7 8 11 8 22 32 25 25 11 7 6
19 21 22 24 26 30 30 26 26 25 18 10 7 6 5 3 2 2 5 9 5 5 4 4 5 9 10 12 7 7 9 9 16 13 13 10 8 9 4 3 9 21 30 31 22 9 10
19 22 22 22 26 29 30 24 23 23 18 11 7 4 4 2 2 2 3 2 5 3 2 2 4 6 11 11 7 9 11 10 15 12 11 10 10 7 12 4 9 20 24 25 35 14 11
21 23 22 24 27 28 24 23 22 21 18 12 7 4 5 4 4 5 5 3 5 5 5 4 5 7 8 3 5 5 7 11 13 13 13 12 10 12 9 7 7 8 18 25 27 30 16
22 20 22 24 25 23 21 21 21 18 16 12 6 5 6 6 2 4 3 1 3 6 8 6 8 7 10 5 7 8 6 8 10 14 13 13 7 11 12 13 13 15 15 18 31 32 33
20 22 22 22 22 23 22 22 22 20 16 14 9 6 7 8 8 8 7 4 3 3 1 5 8 8 12 10 9 8 6 6 4 7 13 11 9 8 5 8 9 15 24 28 25 27 29
21 21 22 21 21 23 24 24 22 21 18 15 10 6 6 10 12 14 14 12 11 6 3 6 8 9 7 10 9 9 10 12 11 8 7 8 5 5 3 4 2 4 4 6 13 17 27
20 18 19 20 20 21 23 24 22 18 17 15 11 8 7 9 13 16 16 14 10 10 8 7 9 6 4 5 6 4 3 3 8 11 14 11 10 4 3 7 16 12 8 10 11 12 13
16 15 17 18 20 24 24 24 22 19 17 15 14 11 8 9 9 10 15 16 15 14 13 10 9 8 6 8 5 5 5 5 4 3 11 14 10 11 7 4 4 2 3 6 7 13 10
12 13 14 18 23 25 23 24 23 20 18 17 16 14 12 11 11 12 12 12 15 17 15 12 11 12 12 11 10 8 8 5 5 7 8 14 14 16 12 6 11 7 9 7 5 4 4
12 13 17 20 22 24 25 24 22 22 19 17 16 16 16 14 12 12 18 13 13 16 19 14 11 12 13 15 10 10 9 9 10 9 8 10 12 10 13 7 10 2 4 7 6 6 3
11 15 17 19 22 24 24 25 24 23 22 21 18 18 18 15 15 16 12 17 16 17 17 22 16 9 16 11 14 7 10 7 10 6 15 10 12 8 11 5 6 5 9 8 7 9 4
Wind_Direction
356 356 359 359 355 356 355 354 358 354 354 1 358 355 350 341 335 324 293 269 204 346 336 306 286 252 253 232 198 172 178 189 201 193 200 194 194 190 198 204 205 215 217 220 208 224 234
353 357 358 358 355 358 357 357 0 2 359 6 2 2 359 353 348 349 345 148 175 4 6 337 317 263 235 246 182 155 158 174 196 204 198 196 194 188 198 203 201 214 201 178 208 226 225
354 355 357 357 354 359 357 0 7 5 2 7 11 10 5 6 7 360 107 186 211 313 343 338 318 273 230 202 197 164 161 175 179 186 190 191 183 178 178 165 193 182 195 181 188 217 225
352 354 360 356 354 358 357 0 6 4 1 5 11 21 15 1 20 16 34 267 254 309 324 325 309 281 82 191 173 168 167 181 177 180 183 178 170 157 165 167 164 150 183 192 193 202 227
348 351 358 354 355 354 355 358 4 4 360 3 10 23 31 16 17 35 17 348 293 304 315 322 314 1 149 167 178 191 171 177 182 179 169 162 168 171 171 177 169 189 188 200 206 208 227
345 347 352 351 355 351 353 357 0 4 359 4 9 17 38 27 21 36 41 345 324 330 43 69 66 116 140 158 176 192 182 184 183 158 151 169 174 174 175 173 182 193 196 200 200 208 223
346 346 349 353 354 352 348 354 358 4 2 7 3 9 28 34 32 34 49 45 17 45 101 30 30 133 148 153 182 178 167 175 168 173 166 172 176 182 186 185 195 196 206 197 211 206 222
343 347 353 354 353 354 350 347 353 359 359 5 8 358 14 14 24 36 46 54 53 58 62 45 53 341 148 165 170 167 142 166 184 158 172 169 185 186 184 186 181 177 182 197 206 212 224
342 345 354 354 354 356 353 348 346 352 358 359 11 9 0 6 7 32 31 45 48 57 63 59 70 100 133 141 150 157 154 174 185 160 170 167 190 187 190 193 193 188 210 216 215 202 204
338 341 346 351 355 351 355 353 351 346 353 356 8 12 23 24 14 16 29 32 37 52 62 38 52 114 138 158 148 143 172 168 171 142 159 157 167 184 190 192 189 213 206 226 200 205 206
335 337 341 347 349 350 350 355 355 351 346 353 2 8 8 20 16 20 36 37 21 57 59 31 113 114 120 154 136 152 164 147 162 167 165 159 176 176 186 194 193 217 211 212 204 198 194
332 332 341 348 352 346 343 346 350 351 347 348 353 5 2 4 11 16 32 43 72 80 62 115 169 275 92 101 125 154 170 137 157 163 153 166 187 188 194 194 195 206 192 186 199 209 241
330 332 342 347 351 347 335 338 344 343 345 345 347 357 4 9 29 26 39 50 51 56 140 102 91 99 90 101 119 132 168 152 160 169 185 182 192 194 201 199 200 180 176 114 90 196 221
332 332 336 341 344 347 338 336 342 340 341 338 344 350 360 9 36 44 52 87 64 75 79 79 79 93 92 101 85 65 147 177 185 188 184 183 172 203 210 213 200 182 177 177 185 201 222
336 337 343 346 348 345 340 331 328 330 339 336 336 343 355 9 38 49 42 68 124 113 109 99 75 55 84 85 108 100 119 173 179 183 173 160 199 191 222 210 190 177 198 207 239 230 156
337 339 341 342 348 346 343 342 337 337 328 333 327 332 339 356 26 37 34 93 133 136 121 95 14 94 105 126 124 98 92 103 168 187 194 185 152 192 192 198 194 189 188 203 217 203 236
332 339 341 344 348 348 343 341 343 341 334 330 321 318 334 355 18 28 77 121 118 124 140 127 132 115 129 114 130 108 156 144 128 135 150 137 172 178 211 209 205 193 196 199 208 239 204
329 337 337 342 343 344 344 341 342 341 338 330 320 311 310 344 50 21 85 143 128 108 104 130 165 147 165 155 146 141 160 179 156 159 161 161 180 150 198 223 227 211 210 209 212 210 229
326 335 333 337 339 343 345 345 345 347 353 331 308 281 266 335 103 14 141 164 140 124 98 132 155 193 184 175 170 185 190 178 172 169 181 178 164 131 133 245 229 209 214 218 214 217 230
335 339 341 340 340 338 346 345 347 349 353 342 319 254 224 216 200 139 143 149 212 225 253 195 160 155 174 182 197 209 207 181 188 200 200 200 195 201 197 188 204 209 214 217 215 214 220
340 343 345 342 337 338 343 344 346 352 355 350 322 298 244 220 179 203 196 178 223 252 238 215 192 168 133 194 219 214 205 196 202 209 216 216 223 220 222 215 217 225 223 221 220 222 223
340 346 343 341 342 344 346 345 344 347 348 345 317 284 259 245 226 168 159 196 224 228 252 195 192 184 169 193 215 214 254 233 204 205 202 214 226 225 235 241 247 250 237 222 227 232 237
340 347 352 347 344 350 350 351 345 348 344 343 325 270 256 235 211 195 189 189 215 203 172 205 184 191 196 207 221 235 220 218 211 228 226 219 220 212 219 221 260 270 251 239 238 239 239
343 353 351 350 357 355 351 349 347 349 346 342 332 312 258 232 219 213 214 211 237 227 224 178 194 180 206 227 236 227 222 222 221 218 205 207 215 209 209 205 249 233 259 246 254 258 248
347 348 351 355 356 352 353 348 351 354 348 343 336 331 285 248 237 238 243 232 231 224 216 215 185 205 205 195 140 132 172 232 237 227 215 212 215 224 214 242 286 268 273 262 264 262 250
337 353 353 349 355 353 350 344 347 352 351 347 343 335 308 278 263 255 252 245 228 220 209 214 217 211 182 172 190 217 202 210 200 229 203 203 213 215 215 255 254 200 312 317 253 269 249
340 349 345 347 347 343 341 340 344 345 348 344 336 332 322 293 268 260 266 266 241 220 204 213 230 223 222 209 215 226 231 226 222 204 200 198 216 223 232 255 273 272 279 298 223 284 305
347 340 339 343 342 342 337 339 340 338 339 334 322 314 308 304 292 266 247 245 252 235 209 218 218 222 213 220 222 221 240 227 233 230 226 210 200 218 227 238 261 231 252 246 257 270 319
350 355 348 350 349 341 336 334 335 333 332 329 321 311 302 297 289 279 266 245 236 241 228 214 214 201 208 209 215 214 226 227 242 231 228 227 224 204 211 243 266 236 283 298 285 265 271